Artesia, NM

5:28 AM MDT on October 18, 2017 (GMT -0600)
Artesia Municipal

Weather History for KATS - March, 2013

Change the Weather History Date:

Sunday, March 31, 2013

  Actual Average Record
Temperature  
Mean Temperature 63 °F -  
Max Temperature 73 °F 70 °F 89 °F (2012)
Min Temperature 53 °F 34 °F 18 °F (1987)
Degree Days  
Heating Degree Days 2    
Growing Degree Days 13 (Base 50)    
Moisture  
Dew Point 34 °F    
Average Humidity 36    
Maximum Humidity 62    
Minimum Humidity 17    
Precipitation  
Precipitation 0.00 in - - ()
Sea Level Pressure  
Sea Level Pressure 30.05 in    
Wind  
Wind Speed 11 mph (NNW)    
Max Wind Speed 28 mph    
Max Gust Speed 37 mph    
Visibility 10 miles    
Events      
Averages and records for this station are not official NWS values.
T = Trace of Precipitation, MM = Missing Value Source: NWS Daily Summary

Daily Weather History Graph

Daily Weather History Graph

Search for Another Location

Airport or City:

Trip Planner

Search our weather history database for the weather conditions in past years. The results will help you decide how hot, cold, wet, or windy it might be!

Date:

Astronomy

Mar. 31, 2013 Rise Set
Actual Time 6:46 AM MDT 7:17 PM MDT
Civil Twilight 6:21 AM MDT 7:42 PM MDT
Nautical Twilight 5:52 AM MDT 8:11 PM MDT
Astronomical Twilight 5:23 AM MDT 8:41 PM MDT
Moon No Moon Rise 9:50 AM MDT (3/31)
Length of Visible Light 13h 20m
Length of Day
12h 30m
Waning Gibbous, 77% of the Moon is Illuminated
Mar 31
Waning Gibbous
Apr 2
Last Quarter
Apr 10
New
Apr 18
First Quarter
Apr 25
Full

Hourly Weather History & Observations

Time (MDT) Temp. Dew Point Humidity Pressure Visibility Wind Dir Wind Speed Gust Speed Precip Events Conditions
12:15 AM 68.0 °F 21.2 °F 17% 29.98 in 10.0 mi West 12.7 mph - N/A   Clear
12:35 AM 68.0 °F 23.0 °F 18% 29.98 in 10.0 mi West 16.1 mph - N/A   Clear
12:55 AM 68.0 °F 24.8 °F 20% 29.97 in 10.0 mi WNW 13.8 mph - N/A   Clear
1:15 AM 68.0 °F 24.8 °F 20% 29.97 in 10.0 mi NNW 9.2 mph - N/A   Clear
1:35 AM 66.2 °F 26.6 °F 23% 29.97 in 10.0 mi NNW 12.7 mph 21.9 mph N/A   Clear
1:55 AM 66.2 °F 26.6 °F 23% 29.97 in 10.0 mi WNW 6.9 mph - N/A   Clear
2:15 AM 64.4 °F 26.6 °F 24% 29.97 in 10.0 mi WNW 8.1 mph - N/A   Clear
2:35 AM 64.4 °F 24.8 °F 22% 29.97 in 10.0 mi NW 10.4 mph - N/A   Clear
2:55 AM 64.4 °F 24.8 °F 22% 29.97 in 10.0 mi North 6.9 mph - N/A   Clear
3:15 AM 64.4 °F 24.8 °F 22% 29.97 in 10.0 mi West 5.8 mph - N/A   Clear
3:35 AM 64.4 °F 24.8 °F 22% 29.96 in 10.0 mi NW 6.9 mph - N/A   Clear
3:55 AM 62.6 °F 24.8 °F 24% 29.96 in 10.0 mi West 8.1 mph - N/A   Clear
4:15 AM 62.6 °F 24.8 °F 24% 29.97 in 10.0 mi West 6.9 mph - N/A   Clear
4:35 AM 62.6 °F 24.8 °F 24% 29.98 in 10.0 mi WSW 6.9 mph - N/A   Clear
4:55 AM 60.8 °F 24.8 °F 25% 29.98 in 10.0 mi WSW 8.1 mph - N/A   Partly Cloudy
5:15 AM 62.6 °F 24.8 °F 24% 29.99 in 10.0 mi NW 13.8 mph 23.0 mph N/A   Partly Cloudy
5:35 AM 62.6 °F 32.0 °F 32% 30.02 in 3.0 mi North 26.5 mph 34.5 mph N/A   Haze
5:55 AM 59.0 °F 37.4 °F 45% 30.03 in 5.0 mi North 27.6 mph 36.8 mph N/A   Haze
6:15 AM 57.2 °F 37.4 °F 48% 30.05 in 6.0 mi North 25.3 mph 32.2 mph N/A   Haze
6:35 AM 55.4 °F 39.2 °F 54% 30.07 in 7.0 mi North 21.9 mph 26.5 mph N/A   Clear
6:55 AM 53.6 °F 39.2 °F 58% 30.09 in 9.0 mi North 21.9 mph 27.6 mph N/A   Clear
7:15 AM 53.6 °F 39.2 °F 58% 30.10 in 10.0 mi North 21.9 mph 26.5 mph N/A   Clear
7:35 AM 53.6 °F 41.0 °F 62% 30.12 in 9.0 mi North 19.6 mph 23.0 mph N/A   Clear
7:55 AM 53.6 °F 41.0 °F 62% 30.13 in 10.0 mi North 21.9 mph 27.6 mph N/A   Clear
8:15 AM 55.4 °F 41.0 °F 58% 30.15 in 10.0 mi North 19.6 mph 27.6 mph N/A   Clear
8:35 AM 55.4 °F 41.0 °F 58% 30.15 in 10.0 mi North 18.4 mph 26.5 mph N/A   Clear
8:55 AM 55.4 °F 41.0 °F 58% 30.16 in 10.0 mi North 18.4 mph - N/A   Clear
9:15 AM 57.2 °F 41.0 °F 55% 30.17 in 10.0 mi North 18.4 mph 25.3 mph N/A   Clear
9:35 AM 57.2 °F 39.2 °F 51% 30.17 in 10.0 mi North 19.6 mph 25.3 mph N/A   Clear
9:55 AM 59.0 °F 39.2 °F 48% 30.17 in 10.0 mi NNE 13.8 mph 25.3 mph N/A   Clear
10:15 AM 59.0 °F 39.2 °F 48% 30.17 in 10.0 mi NE 15.0 mph 23.0 mph N/A   Partly Cloudy
10:35 AM 59.0 °F 39.2 °F 48% 30.18 in 10.0 mi NE 13.8 mph 18.4 mph N/A   Partly Cloudy
10:55 AM 60.8 °F 39.2 °F 45% 30.18 in 10.0 mi NNE 9.2 mph 24.2 mph N/A   Clear
11:15 AM 62.6 °F 39.2 °F 42% 30.18 in 10.0 mi North 10.4 mph 19.6 mph N/A   Clear
11:35 AM 62.6 °F 39.2 °F 42% 30.17 in 10.0 mi North 13.8 mph 18.4 mph N/A   Clear
11:55 AM 64.4 °F 39.2 °F 40% 30.16 in 10.0 mi NNE 8.1 mph - N/A   Clear
12:15 PM 64.4 °F 39.2 °F 40% 30.15 in 10.0 mi NNE 8.1 mph - N/A   Clear
12:35 PM 64.4 °F 39.2 °F 40% 30.14 in 10.0 mi NE 11.5 mph - N/A   Clear
12:55 PM 66.2 °F 39.2 °F 37% 30.13 in 10.0 mi North 6.9 mph - N/A   Clear
1:15 PM 66.2 °F 39.2 °F 37% 30.12 in 10.0 mi NE 8.1 mph - N/A   Clear
1:35 PM 66.2 °F 39.2 °F 37% 30.11 in 10.0 mi North 10.4 mph - N/A   Clear
1:55 PM 66.2 °F 39.2 °F 37% 30.10 in 10.0 mi SSW 3.5 mph - N/A   Clear
2:15 PM 68.0 °F 39.2 °F 35% 30.09 in 10.0 mi ENE 4.6 mph - N/A   Clear
2:35 PM 68.0 °F 39.2 °F 35% 30.08 in 10.0 mi North 3.5 mph - N/A   Clear
2:55 PM 69.8 °F 39.2 °F 33% 30.06 in 10.0 mi NNE 3.5 mph - N/A   Clear
3:15 PM 69.8 °F 39.2 °F 33% 30.05 in 10.0 mi North 4.6 mph - N/A   Clear
3:35 PM 69.8 °F 39.2 °F 33% 30.04 in 10.0 mi SW 3.5 mph - N/A   Clear
3:55 PM 71.6 °F 39.2 °F 31% 30.03 in 10.0 mi NNW 5.8 mph - N/A   Clear
4:15 PM 71.6 °F 39.2 °F 31% 30.02 in 10.0 mi East 5.8 mph - N/A   Clear
4:35 PM 73.4 °F 37.4 °F 27% 30.01 in 10.0 mi SSE 3.5 mph - N/A   Clear
4:55 PM 73.4 °F 37.4 °F 27% 30.01 in 10.0 mi SW 8.1 mph - N/A   Clear
5:15 PM 71.6 °F 37.4 °F 29% 30.00 in 10.0 mi ENE 3.5 mph - N/A   Clear
5:35 PM 71.6 °F 37.4 °F 29% 30.00 in 10.0 mi SSW 3.5 mph - N/A   Clear
5:55 PM 71.6 °F 37.4 °F 29% 29.99 in 10.0 mi Calm Calm - N/A   Clear
6:15 PM 71.6 °F 37.4 °F 29% 29.99 in 10.0 mi Calm Calm - N/A   Clear
6:35 PM 71.6 °F 35.6 °F 27% 29.99 in 10.0 mi ESE 3.5 mph - N/A   Clear
6:55 PM 71.6 °F 35.6 °F 27% 29.99 in 10.0 mi East 3.5 mph - N/A   Clear
7:15 PM 71.6 °F 35.6 °F 27% 29.99 in 10.0 mi East 3.5 mph - N/A   Clear
7:35 PM 68.0 °F 35.6 °F 30% 29.99 in 10.0 mi East 3.5 mph - N/A   Clear
8:15 PM 66.2 °F 35.6 °F 32% 30.00 in 10.0 mi Calm Calm - N/A   Clear
8:35 PM 64.4 °F 32.0 °F 30% 30.00 in 10.0 mi SSE 4.6 mph - N/A   Clear
8:55 PM 62.6 °F 32.0 °F 32% 30.01 in 10.0 mi South 5.8 mph - N/A   Clear
9:15 PM 62.6 °F 32.0 °F 32% 30.01 in 10.0 mi SSE 8.1 mph - N/A   Clear
9:35 PM 60.8 °F 32.0 °F 34% 30.01 in 10.0 mi South 5.8 mph - N/A   Clear
9:55 PM 60.8 °F 32.0 °F 34% 30.01 in 10.0 mi South 5.8 mph - N/A   Clear
10:15 PM 59.0 °F 32.0 °F 36% 30.02 in 10.0 mi South 8.1 mph - N/A   Clear
10:35 PM 59.0 °F 32.0 °F 36% 30.02 in 10.0 mi SSW 10.4 mph - N/A   Clear
11:15 PM 59.0 °F 32.0 °F 36% 30.02 in 10.0 mi SSW 11.5 mph - N/A   Clear
11:35 PM 57.2 °F 32.0 °F 38% 30.02 in 10.0 mi SW 9.2 mph - N/A   Clear
11:55 PM 55.4 °F 32.0 °F 41% 30.02 in 10.0 mi SSE 5.8 mph - N/A   Clear